Location: Bazugues
(43.4465°N, 0.3432°E)
Time: 10:33:40
(UTC+00:00)

Cosmos 1741 Rocket - Pass Details

Date: 12 January 2026
Orbit: 758 x 777 km, 74.0° (Epoch: 10 February)

Event Time Altitude Azimuth Distance (km) Brightness Sun altitude
Rises 18:42:30 0° 340° (NNW) 3,238 7.4 -20.9°
Reaches altitude 10° 18:44:53 10° 341° (NNW) 2,305 6.6 -21.3°
Maximum altitude 18:50:07 83° 69° (ENE) 771 3.8 -22.3°
Drops below altitude 10° 18:55:18 10° 158° (SSE) 2,281 6.3 -23.2°
Sets 18:57:39 0° 159° (SSE) 3,201 7.1 -23.6°
